Home   Weather   Montgomery   Past weeks
Flag for USA

Past Weather in Montgomery, Alabama, USA — Yesterday and Last 2 Weeks

Now
76 °F

Clear.


Feels Like: 77 °F
Forecast: 92 / 74 °F
Wind: No wind

Location: Maxwell Air Force Base / Montgomery

Current Time: Jun 25, 2019 at 2:51:49 am

Latest Report: Jun 25, 2019 at 1:56 am


Visibility: 10 mi

Pressure: 29.98 "Hg

Humidity: 78%

Dew Point: 68 °F

Location of MontgomeryLocation

Past Weather in Montgomery — Graph

°F

Montgomery Temperature Yesterday

Maximum temperature yesterday: 93 °F (at 3:56 pm)
Minimum temperature yesterday: 75 °F (at 2:56 am)
Average temperature yesterday: 84 °F

High & Low Weather Summary for the Past Weeks

 TemperatureHumidityPressure
High94 °F (Jun 21, 4:56 pm)100% (Jun 18, 2:44 pm)30.19 "Hg (Jun 18, 2:44 pm)
Low62 °F (Jun 14, 3:56 am)35% (Jun 13, 12:56 pm)29.80 "Hg (Jun 19, 8:57 pm)
Average79 °F78%29.97 "Hg
* Reported Jun 10 12:56 am — Jun 25 12:56 am, Montgomery. Weather by CustomWeather, © 2019

Note: Actual official high and low records may vary slightly from our data, if they occured in-between our weather recording intervals... More about our weather records

Advertising

Montgomery Weather History for the Previous 24 Hours

Scroll right to see more
 ConditionsComfort  
Time TempWeatherWind HumidityBarometerVisibility
12:56 am
Tue, Jun 25
76 °FPassing clouds.No wind81%29.97 "Hg10 mi
11:56 pm
Mon, Jun 24
80 °FPassing clouds.No wind68%29.97 "Hg10 mi
10:56 pm80 °FPassing clouds.No wind70%29.98 "Hg10 mi
9:56 pm78 °FPassing clouds.No wind76%29.96 "Hg10 mi
9:16 pm82 °FPassing clouds.No wind70%29.95 "Hg10 mi
8:57 pm82 °FPassing clouds.No wind66%29.95 "Hg10 mi
7:56 pm86 °FPassing clouds.5 mph61%29.93 "Hg10 mi
6:56 pm89 °FSunny.7 mph52%29.92 "Hg10 mi
5:56 pm92 °FSunny.10 mph44%29.90 "Hg10 mi
4:56 pm92 °FSunny.8 mph49%29.89 "Hg10 mi
3:56 pm93 °FSunny.7 mph51%29.89 "Hg10 mi
2:56 pm91 °FScattered clouds.8 mph59%29.91 "Hg10 mi
1:56 pm90 °FPassing clouds.9 mph54%29.91 "Hg10 mi
12:56 pm90 °FScattered clouds.13 mph62%29.92 "Hg10 mi
11:56 am89 °FScattered clouds.12 mph63%29.94 "Hg10 mi
10:56 am88 °FPassing clouds.13 mph65%29.94 "Hg10 mi
9:56 am86 °FScattered clouds.14 mph71%29.95 "Hg10 mi
8:56 am83 °FPassing clouds.9 mph80%29.98 "Hg10 mi
7:56 am81 °FScattered clouds.8 mph87%29.97 "Hg10 mi
6:56 am78 °FSunny.3 mph92%29.96 "Hg10 mi
5:56 am76 °FSunny.5 mph96%29.94 "Hg8 mi
4:56 am76 °FClear.6 mph96%29.93 "Hg10 mi
3:56 am75 °FClear.No wind95%29.93 "Hg10 mi
2:56 am75 °FClear.3 mph94%29.93 "Hg10 mi
Weather by CustomWeather, © 2019

See weather overview